When you browse on this site, cookies collect data to enhance your experience and personalize the content and advertising you see.
Visit our Privacy Policy to learn more. By continuing to use the site, you agree to this use of cookies and data.
  • In Lithuania
  • List of Countries
  • For 7 days
  • Water Temperature
  • Satellite Maps
  • Weather Map
  • Weather Widgets
  • user-avatar
    Login

    Hourly Weather Jewłach

    Today, 19 July, Friday

    Time Temperature Precipitation Wind Pressure Humidity
    00:00 +29°C° 0 mm 4 mps 754 mmHg 44%
    01:00 +29°C° 0 mm 3 mps 754 mmHg 47%
    02:00 +28°C° 0 mm 3 mps 754 mmHg 50%
    03:00 +27°C° 0 mm 2 mps 754 mmHg 52%
    04:00 +28°C° 0 mm 1 mps 755 mmHg 52%
    05:00 +28°C° 0 mm 1 mps 755 mmHg 52%
    06:00 +28°C° 0 mm 1 mps 756 mmHg 52%
    07:00 +30°C° 0 mm 1 mps 756 mmHg 48%
    08:00 +31°C° 0 mm 2 mps 756 mmHg 44%
    09:00 +34°C° 0 mm 2 mps 756 mmHg 41%
    10:00 +35°C° 0 mm 2 mps 756 mmHg 38%
    11:00 +37°C° 0 mm 3 mps 756 mmHg 35%
    12:00 +38°C° 0 mm 3 mps 756 mmHg 33%
    13:00 +39°C° 0 mm 3 mps 756 mmHg 31%
    14:00 +40°C° 0 mm 3 mps 755 mmHg 29%
    15:00 +40°C° 0 mm 3 mps 755 mmHg 28%
    16:00 +40°C° 0 mm 3 mps 755 mmHg 28%
    17:00 +41°C° 0 mm 4 mps 756 mmHg 28%
    18:00 +41°C° 0 mm 4 mps 756 mmHg 27%
    19:00 +37°C° 0 mm 4 mps 757 mmHg 32%
    20:00 +35°C° 0 mm 5 mps 757 mmHg 36%
    21:00 +33°C° 0 mm 5 mps 758 mmHg 41%
    22:00 +32°C° 0 mm 5 mps 758 mmHg 43%
    23:00 +32°C° 0 mm 4 mps 758 mmHg 44%

    Tomorrow, 20 July, Saturday

    Time Temperature Precipitation Wind Pressure Humidity
    00:00 +30°C° 0 mm 4 mps 758 mmHg 46%
    01:00 +29°C° 0 mm 3 mps 758 mmHg 47%
    02:00 +29°C° 0 mm 2 mps 758 mmHg 49%
    03:00 +28°C° 0 mm 1 mps 758 mmHg 51%
    04:00 +29°C° 0 mm 1 mps 759 mmHg 50%
    05:00 +29°C° 0 mm 1 mps 759 mmHg 49%
    06:00 +30°C° 0 mm 2 mps 759 mmHg 49%
    07:00 +31°C° 0 mm 2 mps 760 mmHg 46%
    08:00 +32°C° 0 mm 2 mps 760 mmHg 43%
    09:00 +35°C° 0 mm 2 mps 760 mmHg 40%
    10:00 +36°C° 0 mm 2 mps 760 mmHg 36%
    11:00 +38°C° 0 mm 3 mps 759 mmHg 32%
    12:00 +41°C° 0 mm 4 mps 759 mmHg 27%
    13:00 +42°C° 0 mm 4 mps 759 mmHg 26%
    14:00 +42°C° 0 mm 5 mps 759 mmHg 24%
    15:00 +43°C° 0 mm 5 mps 758 mmHg 23%
    16:00 +42°C° 0 mm 6 mps 759 mmHg 23%
    17:00 +43°C° 0 mm 7 mps 759 mmHg 24%
    18:00 +41°C° 0 mm 7 mps 759 mmHg 25%
    19:00 +39°C° 0 mm 7 mps 760 mmHg 29%
    20:00 +36°C° 0 mm 7 mps 760 mmHg 33%
    21:00 +34°C° 0 mm 7 mps 761 mmHg 37%
    22:00 +33°C° 0 mm 6 mps 761 mmHg 38%
    23:00 +32°C° 0 mm 5 mps 761 mmHg 39%

    Day after tomorrow, 21 July, Sunday

    Time Temperature Precipitation Wind Pressure Humidity
    00:00 +32°C° 0 mm 4 mps 761 mmHg 40%
    01:00 +30°C° 0 mm 4 mps 761 mmHg 41%
    02:00 +30°C° 0 mm 4 mps 761 mmHg 42%
    03:00 +29°C° 0 mm 4 mps 761 mmHg 44%
    04:00 +30°C° 0 mm 4 mps 761 mmHg 43%
    05:00 +30°C° 0 mm 5 mps 761 mmHg 42%
    06:00 +30°C° 0 mm 5 mps 762 mmHg 42%
    07:00 +33°C° 0 mm 5 mps 761 mmHg 38%
    08:00 +35°C° 0 mm 5 mps 761 mmHg 34%
    09:00 +38°C° 0 mm 6 mps 761 mmHg 30%
    10:00 +39°C° 0 mm 6 mps 761 mmHg 28%
    11:00 +40°C° 0 mm 6 mps 760 mmHg 26%
    12:00 +43°C° 0 mm 7 mps 760 mmHg 23%
    13:00 +42°C° 0 mm 6 mps 759 mmHg 23%
    14:00 +44°C° 0 mm 6 mps 758 mmHg 22%
    15:00 +44°C° 0 mm 6 mps 758 mmHg 21%
    16:00 +44°C° 0 mm 6 mps 758 mmHg 21%
    17:00 +44°C° 0 mm 6 mps 758 mmHg 22%
    18:00 +42°C° 0 mm 6 mps 758 mmHg 22%
    19:00 +40°C° 0 mm 6 mps 758 mmHg 25%
    20:00 +38°C° 0 mm 6 mps 759 mmHg 29%
    21:00 +35°C° 0 mm 6 mps 759 mmHg 33%
    22:00 +34°C° 0 mm 5 mps 759 mmHg 36%
    23:00 +32°C° 0 mm 5 mps 759 mmHg 40%

    22 July, Monday

    Time Temperature Precipitation Wind Pressure Humidity
    00:00 +30°C° 0 mm 4 mps 759 mmHg 43%
    01:00 +30°C° 0 mm 4 mps 758 mmHg 46%
    02:00 +29°C° 0 mm 3 mps 758 mmHg 48%
    03:00 +28°C° 0 mm 2 mps 758 mmHg 50%
    04:00 +29°C° 0 mm 2 mps 758 mmHg 50%
    05:00 +29°C° 0 mm 1 mps 758 mmHg 49%
    06:00 +30°C° 0 mm 1 mps 758 mmHg 48%
    07:00 +32°C° 0 mm 1 mps 758 mmHg 43%
    08:00 +34°C° 0 mm 2 mps 757 mmHg 38%
    09:00 +36°C° 0 mm 2 mps 757 mmHg 33%
    10:00 +38°C° 0 mm 3 mps 756 mmHg 30%
    11:00 +39°C° 0 mm 3 mps 756 mmHg 28%
    12:00 +40°C° 0 mm 3 mps 756 mmHg 26%
    13:00 +42°C° 0 mm 3 mps 755 mmHg 24%
    14:00 +43°C° 0 mm 4 mps 755 mmHg 22%
    15:00 +44°C° 0 mm 4 mps 754 mmHg 21%
    16:00 +44°C° 0 mm 4 mps 754 mmHg 21%
    17:00 +43°C° 0 mm 4 mps 754 mmHg 22%
    18:00 +43°C° 0 mm 5 mps 754 mmHg 22%
    19:00 +41°C° 0 mm 5 mps 755 mmHg 28%
    20:00 +38°C° 0 mm 6 mps 755 mmHg 33%
    21:00 +35°C° 0 mm 6 mps 756 mmHg 39%
    22:00 +34°C° 0 mm 5 mps 756 mmHg 43%
    23:00 +32°C° 0 mm 4 mps 756 mmHg 47%

    23 July, Tuesday

    Time Temperature Precipitation Wind Pressure Humidity
    00:00 +30°C° 0 mm 3 mps 756 mmHg 52%
    01:00 +30°C° 0 mm 2 mps 756 mmHg 53%
    02:00 +30°C° 0 mm 2 mps 756 mmHg 55%
    03:00 +29°C° 0 mm 2 mps 756 mmHg 57%
    04:00 +30°C° 0 mm 2 mps 756 mmHg 56%
    05:00 +30°C° 0 mm 2 mps 756 mmHg 56%
    06:00 +30°C° 0 mm 2 mps 756 mmHg 55%
    07:00 +31°C° 0 mm 2 mps 756 mmHg 49%
    08:00 +34°C° 0 mm 2 mps 756 mmHg 43%
    09:00 +36°C° 0 mm 3 mps 755 mmHg 37%
    10:00 +37°C° 0 mm 3 mps 755 mmHg 33%
    11:00 +40°C° 0 mm 4 mps 755 mmHg 30%
    12:00 +41°C° 0 mm 5 mps 754 mmHg 27%
    13:00 +42°C° 0 mm 5 mps 754 mmHg 26%
    14:00 +44°C° 0 mm 6 mps 753 mmHg 25%
    15:00 +44°C° 0 mm 6 mps 752 mmHg 24%
    16:00 +44°C° 0 mm 6 mps 752 mmHg 25%
    17:00 +43°C° 0 mm 7 mps 752 mmHg 26%
    18:00 +41°C° 0 mm 7 mps 753 mmHg 27%
    19:00 +39°C° 0 mm 7 mps 753 mmHg 31%
    20:00 +36°C° 0 mm 6 mps 753 mmHg 36%
    21:00 +34°C° 0 mm 6 mps 754 mmHg 40%
    22:00 +33°C° 0 mm 4 mps 754 mmHg 43%
    23:00 +31°C° 0 mm 3 mps 754 mmHg 47%

    24 July, Wednesday

    Time Temperature Precipitation Wind Pressure Humidity
    00:00 +29°C° 0 mm 2 mps 754 mmHg 50%
    01:00 +29°C° 0 mm 2 mps 754 mmHg 51%
    02:00 +28°C° 0 mm 2 mps 754 mmHg 53%
    03:00 +28°C° 0 mm 2 mps 754 mmHg 54%
    04:00 +28°C° 0 mm 2 mps 754 mmHg 54%
    05:00 +29°C° 0 mm 2 mps 754 mmHg 53%
    06:00 +29°C° 0 mm 2 mps 754 mmHg 52%
    07:00 +31°C° 0 mm 2 mps 754 mmHg 47%
    08:00 +34°C° 0 mm 2 mps 753 mmHg 43%
    09:00 +36°C° 0 mm 2 mps 753 mmHg 38%
    10:00 +37°C° 0 mm 2 mps 753 mmHg 34%
    11:00 +38°C° 0 mm 2 mps 752 mmHg 30%
    12:00 +40°C° 0 mm 2 mps 752 mmHg 25%
    13:00 +41°C° 0 mm 2 mps 752 mmHg 24%
    14:00 +41°C° 0 mm 2 mps 751 mmHg 23%
    15:00 +42°C° 0 mm 2 mps 751 mmHg 22%
    16:00 +43°C° 0 mm 3 mps 751 mmHg 22%
    17:00 +42°C° 0 mm 3 mps 751 mmHg 23%
    18:00 +42°C° 0 mm 3 mps 751 mmHg 23%
    19:00 +38°C° 0 mm 4 mps 751 mmHg 30%
    20:00 +35°C° 0 mm 5 mps 752 mmHg 37%
    21:00 +33°C° 0 mm 6 mps 753 mmHg 44%
    22:00 +32°C° 0 mm 5 mps 753 mmHg 47%
    23:00 +30°C° 0 mm 4 mps 753 mmHg 50%
    Show more